Location: Bartlow
(52.0833°N, 0.3167°E)
Time: 19:21:06
(UTC+00:00)

Cosmos 1980 Rocket - Pass Details

Date: 26 September 2023
Orbit: 829 x 849 km, 71.0° (Epoch: 08 December)

Event Time Altitude Azimuth Distance (km) Brightness Sun altitude
Rises 01:26:44 0° 329° (NNW) 3,424 5.7 -35.2°
Reaches altitude 10° 01:29:12 10° 330° (NNW) 2,486 4.9 -35.0°
Enters shadow 01:31:12 23° 331° (NNW) 1,745 4.0 -34.8°
